Погода в Русском Байтугане

Россия / Самарская область     54°05′18″N   52°16′00″E
темп.,
°C
ветер,
м/с
пор.,
м/с
влажн.,
%
обл.,
%
осадки,
мм/ч
давл.,
гПа
погр.,
м
21 апреля, ср
ср2101:00+3юв51347100 0.0 1030410
04:00+2юв61452100 0.0 1030444
07:00+2юв81650100 0.0 1029629
10:00+6ююв91435100 0.0 1029892
13:00+8ююв91333100 0.0 10271005
16:00+9ю71236100 0.0 10271175
19:00+7ю61350100 0.2 10261002
22:00+6ююв71465100 0.4 10271044
22 апреля, чт
чт2201:00+3ююв81696100 1.3 1027837
04:00+3ююв81496100 2.9 1027730
07:00+3ю71297100 1.9 1027761
10:00+4ююв61196100 5.1 1028752
13:00+4ююв61188100 0.4 1029649
16:00+4ююв51090100 0.4 1029555
19:00+4ююв51090100 0.1 1029521
22:00+3ююв51096100 0.1 1029477
23 апреля, пт
пт2301:00+3ююв4897100 0.0 1028363
04:00+3юв3698100 0.0 1028279
07:00+3юв2498100 0.0 1029208
10:00+5вюв239499 0.0 1029272
13:00+9вюв4475100 0.0 1027736
16:00+11в5564100 0.0 10251020
19:00+9всв4780100 0.0 1024235
22:00+7в3586100 0.0 1023129
24 апреля, сб
сб2401:00+7юв4794100 0.6 1022489
04:00+6в4794100 2.1 1020715
07:00+6всв4894100 1.3 1018438
10:00+6вюв4689100 1.9 1016950
13:00+6всв3491100 1.3 1015845
16:00+6ссв2395100 2.7 1014170
19:00+6ссз1194100 0.3 101441
22:00+6зюз2294100 0.3 101370
25 апреля, вс
вс2501:00+5юз1190100 0.0 101321
04:00+4ююв369290 0.0 1012119
07:00+5ююв51395100 0.8 1011552
10:00+5з81278100 0.9 1013945
13:00+11зюз811465 0.0 10142144
16:00+12зюз7113958 0.0 10152539
19:00+10ююз5105559 0.0 1015323
22:00+7юз5118876 1.9 1017964